[Iaude] MPEC X305: 2018 GJ1 [a=1.80,e=0.55,i=6.8,H=20.80]

mpec at marsden.cfa.harvard.edu mpec at marsden.cfa.harvard.edu
Fri Dec 15 09:08:57 EST 2023


M.P.E.C. 2023-X305                            Issued 2023 December 15, 14:07 UT

     The Minor Planet Electronic Circulars contain information on unusual
         minor planets, routine data on comets and natural satellites,
         and occasional editorial announcements.  They are published
    on behalf of Division F of the International Astronomical Union by the
          Minor Planet Center, Smithsonian Astrophysical Observatory,
                          Cambridge, MA 02138, U.S.A.
			  
             Prepared using the Tamkin Foundation Computer Network

                              MPC at CFA.HARVARD.EDU
            URL https://www.minorplanetcenter.net/    ISSN 1523-6714

                                    2018 GJ1                                    


                           Revision to MPEC 2018-G52                            

Additional Observations:
     K18G01J 5C2023 10 13.58971905 47 31.390+26 55 04.13         24.0 GVEX305T15
     K18G01J 5C2023 10 13.59448605 47 31.273+26 55 05.65         24.1 GVEX305T15
     K18G01J 5C2023 10 13.60274305 47 31.140+26 55 07.91         24.1 GVEX305T15
     K18G01J 5C2023 11 05.42960505 29 07.488+28 27 20.43         23.8 GVEX305T15
     K18G01J 5C2023 11 05.43518105 29 07.024+28 27 21.65         24.0 GVEX305T15
     K18G01J 5C2023 11 05.44111005 29 06.526+28 27 22.87         23.9 GVEX305T15

Observer details:
T15 Gemini North Observatory, Maunakea.  Observers C. Figura, S. Stewart, M.
    Rodriguez, K. W. Wierzchos.  Measurers E. C. Beshore, D. Fay, J. B.
    Fazekas, D. C. Fuls, A. R. Gibbs, A. D. Grauer, H. Groeller, J. K. Hogan,
    R. A. Kowalski, G. J. Leonard, D. Rankin, R. L. Seaman, F. C. Shelly, K.
    W. Wierzchos.  8.1-m reflector + 3x2Kx4K mosaic CCD + CCD.

First and last observations above in comparison with prediction:
Residuals in seconds of arc, reference and Delta-T
231013 T15 13.9+  1.6+    231105 T15 18.0+  2.2+    MPO782480   +0.01 days

Orbital elements:
2018 GJ1                                            PHA, Earth MOID = 0.0140 AU
Epoch 2023 Sept. 13.0 TT = JDT 2460200.5                Veres                   
M  54.65612              (2000.0)            P               Q                  
n   0.40648428     Peri.  250.63035     +0.32065582     +0.94434670             
a   1.8048463      Node    38.32129     -0.81854456     +0.31526861             
e   0.5510536      Incl.    6.79926     -0.47661792     +0.09388832             
P   2.42           H   20.80          G   0.15           U   1                  
Residuals in seconds of arc
180319 G96  0.1-  0.1+    180412 G96  0.2+  0.0     180423 I52  0.1-  0.1-
180319 G96  0.0   0.3+    180412 G96  0.1+  0.1-    180423 I52  0.3+  0.3-
180319 G96  0.2+  0.1+    180412 G96  0.3+  0.4-    180423 T05  0.3+  0.0
180319 G96  0.2-  0.3+    180412 Q11  0.8-  0.1-    180423 T05  0.2+  0.1-
180408 703  0.1+  0.0     180412 Q11 (1.3-  0.3-)   180423 T05  0.9-  0.0
180408 703  0.4+  0.1+    180412 Q11  0.6-  0.3-    180423 T05  0.4-  0.2+
180408 703  0.7+  0.4-    180414 I52  0.4+  0.1+    180430 I15  0.2-  0.1-
180408 703  0.3+  1.0+    180414 I52  0.1+  0.0     180430 I15  0.6-  0.2-
180408 703  0.6+  0.2-    180414 I52  0.1+  0.3-    180430 I15  0.3+  0.3+
180408 703  0.5+  1.5+    180414 I52  0.0   0.2-    180430 E08  0.0   0.1-
180408 E23  0.2-  0.0     180414 703  1.0-  0.5-    180430 E08  0.2+  0.2+
180408 E23  0.1+  0.2+    180414 703  0.3+  0.8+    180430 E08  0.1+  0.0
180408 E23  0.3-  0.3-    180414 703  0.0   0.0     180503 691  0.1-  0.1+
180408 P93  0.0   0.3+    180414 703  0.1+  0.2+    180503 691  0.7-  0.4-
180408 P93  0.1+  0.4+    180414 246  0.0   0.2+    180504 691  0.3-  0.1-
180408 P93  0.2-  0.1+    180414 246  0.7+  0.4-    180504 691  0.2-  0.2-
180408 P93  0.3-  0.3+    180414 246  0.4+  0.2+    180504 691  0.1-  0.0
180408 K61  0.9+  0.6+    180414 246  0.6+  0.4+    180505 691  0.4-  0.5-
180408 K61  0.7+  0.6+    180414 246  1.7+  0.8-    180505 691  0.2-  0.0
180408 K61  0.8+  0.4+    180414 246  1.5+  0.8+    180505 691  0.7-  0.2-
180408 113  0.6-  0.3+    180414 C47  0.5+  0.0     180505 703  0.6-  0.6+
180408 113  0.0   0.3-    180414 C47  0.4+  0.0     180505 703 (0.8+  3.0+)
180408 113  0.2-  0.1-    180414 C47  0.2+  0.1-    180505 C51  0.6-  0.9-
180408 113  0.0   0.1-    180414 C47  0.2+  0.1-    180505 C51  0.3-  0.4+
180408 246  0.5+  0.5+    180416 G40  0.1+  0.0     180505 C51  0.7-  1.0-
180408 246  0.1-  0.2+    180416 G40  0.1+  0.2-    180505 C51  0.4-  0.1+
180408 246  0.4-  0.8+    180416 G40  0.2+  0.1-    180507 703  0.0   0.1-
180408 246  0.1+  0.4+    180416 I52  0.2+  0.2-    180507 703  0.4-  0.3-
180408 246  0.6+  0.3+    180416 I52  0.1+  0.0     180507 703  0.7+  0.6+
180408 C43  0.8-  0.8+    180416 I52  0.1+  0.0     180507 703 (0.0   1.9+)
180408 C43  0.0   0.3-    180416 I52  0.1+  0.0     180508 711  0.5+  0.3+
180408 A17  0.0   0.7+    180418 151  0.4-  0.0     180508 711  0.1+  0.3+
180408 C43  0.4+  1.0-    180418 246  0.5-  0.1+    180508 711  0.2+  0.2+
180408 A17  0.3-  0.2-    180418 246  0.7-  0.4-    180508 I52  0.1+  0.1+
180408 A17  0.4+  0.2-    180418 151  0.0   0.2-    180508 I52  0.1+  0.0
180408 C47  0.2+  0.2+    180418 246  0.9-  0.2-    180508 I52  0.2+  0.0
180408 C47  0.1+  0.1+    180418 151  0.0   0.5-    180508 I52  0.2+  0.0
180408 C47  0.3+  0.2+    180418 203  0.1-  0.0     180509 I52  0.0   0.1-
180408 C47  0.3+  0.1+    180418 203  0.2+  0.3+    180509 I52  0.1+  0.1-
180409 I52  0.6+  0.2+    180419 246  0.8+  0.0     180509 I52  0.3+  0.1+
180409 I52  0.1+  0.2-    180419 246  0.4+  0.2-    180509 I52  0.1+  0.0
180409 I52  0.4+  0.1-    180419 246  0.5+  0.1+    180512 I52  0.0   0.6+
180409 I52  0.6+  0.1-    180419 246  0.2-  0.4+    180512 I52  0.4-  0.0
180409 E08  0.0   0.2+    180419 246  0.4+  0.3+    180512 I52  0.0   0.1-
180409 E08  0.1+  0.1-    180419 246  0.7+  0.5+    180512 I52  0.0   0.4+
180409 E08  0.4+  0.3-    180419 246  0.2+  0.2+    180515 703  0.1+  0.0
180409 L33  0.6-  1.2+    180419 204  0.1-  0.1-    180515 703  0.4+  0.1+
180409 L33  1.1+  0.3-    180419 204  0.2+  0.0     180515 703  0.3+  0.1+
180409 L33  0.5-  0.0     180419 204  0.1+  0.1+    180516 691  0.1+  0.1+
180409 K88  0.1-  0.0     180420 G96  0.2+  0.2+    180516 691  0.3+  0.2-
180409 K88  0.2+  0.1-    180420 G96  0.1+  0.4+    180516 691  0.5+  0.1+
180409 K88  0.0   0.1-    180420 G96  0.2+  0.1+    180516 T12  0.0   0.1+
180409 246  0.9-  0.4+    180420 G96  0.1-  0.1+    180516 T12  0.1+  0.1+
180409 246  0.7-  0.5+    180420 246  0.1+  0.1+    180519 691  0.2-  0.2-
180409 246  0.5-  0.4+    180420 246  0.1-  0.0     180519 691  0.2-  0.5+
180409 246  0.1+  0.2-    180420 246  0.1-  0.7+    180915 291  0.3+  0.1+
180409 246  0.4+  0.3-    180420 246  0.1-  0.1+    180915 291  0.2-  0.1-
180409 246  0.2+  0.2+    180420 246  0.1-  0.1-    180917 291  0.1+  0.1+
180409 585  0.2+  0.0     180420 246  0.8-  0.7-    180917 291  0.2+  0.2+
180409 585  0.3+  0.0     180420 246  0.5-  0.7-    180917 291  0.3+  0.4+
180409 585  0.3+  0.0     180421 I52  0.2+  0.1-    180918 V06 (1.2+  1.7-)
180409 585  0.5+  0.1-    180421 I52  0.1+  0.1+    180918 V06  0.2-  0.0
180409 585  0.5+  0.0     180421 I52  0.2+  0.0     180918 V06  0.1-  0.2+
180409 585  0.5+  0.1-    180421 I52  0.2+  0.1+    180918 V06 (1.5+  1.6-)
180409 585  0.5+  0.2-    180421 703  0.4+  0.5+    181009 H21  0.7-  0.5+
180409 585  0.5+  0.1-    180421 703  0.5+  0.1+    181009 H21  0.7-  0.3+
180410 I52  0.0   0.0     180421 703  1.0+  0.3+    181009 H21  0.7-  0.3+
180410 I52  0.1+  0.1+    180421 703  0.1-  0.4+    181012 H21  0.0   0.4+
180410 I52  0.2+  0.1-    180421 246  0.5+  1.1-    181012 H21  0.1+  0.5+
180410 I52  0.3+  0.2+    180421 246  0.5+  0.0     181012 H21  0.4+  0.3+
180410 E08  0.3-  0.1-    180421 246  0.3+  0.7+    181016 H21  0.1-  0.1+
180410 E08  0.4+  0.9-    180421 246  0.2+  0.3-    181016 H21  0.0   0.4+
180410 E08  0.2-  0.0     180421 246  0.9+  0.4+    181018 V06  0.2-  0.1+
180410 033  0.3+  0.0     180421 246  0.7-  0.5+    181018 V06  0.0   0.0
180410 033  0.4+  0.1+    180421 246  0.2+  0.9-    181018 V06  0.0   0.1+
180410 033  0.3+  0.0     180422 K38  0.0   0.0     181018 V06  0.1+  0.0
180410 K88  0.0   0.1-    180422 246  1.3-  1.6+    181019 H21  0.0   0.6-
180410 K88  0.0   0.0     180422 246  0.1-  0.5-    181019 H21  0.1-  0.4-
180410 K88  0.1+  0.1+    180422 246  0.2-  2.2+    181019 H21  0.3-  0.1+
180410 033  0.2+  0.0     180422 246  1.0-  0.7-    181029 H21  0.5+  0.9-
180410 033  0.2+  0.0     180422 K38  0.2+  0.0     181029 H21  0.5+  1.0-
180410 033  0.3+  0.0     180422 246  0.1-  1.0-    181029 H21  0.3+  0.7-
180411 I52  0.3+  0.5-    180422 246  0.4+  0.4+    181030 H21  0.2+  0.1-
180411 I52  0.2-  0.3-    180422 246  0.1+  0.8+    181030 H21  0.3-  0.0
180411 I52  0.2+  0.2+    180422 246  1.3-  0.1-    181030 H21  0.0   0.0
180411 703  1.2-  0.5-    180422 K38  0.3-  0.1-    231013 T15  0.3+  0.3-
180411 703  1.0+  0.2-    180422 K38  0.2+  0.2+    231013 T15  0.1-  0.1-
180411 703  0.0   0.1+    180422 Z80  0.2-  0.1-    231013 T15  0.0   0.0
180411 703  1.0+  0.9-    180422 Z80  0.3-  0.6-    231105 T15  0.0   0.0
180411 673 (2.4+  0.7-)   180423 Z80  0.2-  0.2+    231105 T15  0.0   0.0
180411 673  0.7+  0.3+    180423 I52  0.2+  0.2+    231105 T15  0.0   0.0
180411 673  0.2+  0.6+    180423 I52  0.0   0.1-

Ephemeris:
2018 GJ1                 a,e,i = 1.80, 0.55, 7                   q = 0.8103
Date    TT    R. A. (2000) Decl.     Delta      r    Elong.  Phase     V
2023 11 15    05 14 18.4 +28 52 47   1.2220  2.1441   151.5    12.7    23.6
...
2023 11 30    04 46 33.2 +28 59 36   1.2459  2.2249   170.6     4.2    23.4
...
2023 12 08    04 31 47.2 +28 45 39   1.2861  2.2655   171.8     3.6    23.5
...
2023 12 14    04 21 38.8 +28 29 03   1.3290  2.2950   165.3     6.2    23.7
2023 12 15    04 20 04.1 +28 25 56   1.3372  2.2998   164.1     6.7    23.7
2023 12 16    04 18 31.5 +28 22 43   1.3457  2.3046   162.9     7.2    23.8
...
2023 12 22    04 10 04.7 +28 02 19   1.4024  2.3328   155.3    10.1    24.0
...
2023 12 30    04 01 10.4 +27 34 28   1.4923  2.3690   145.5    13.6    24.3
...
2024 01 14    03 51 56.7 +26 50 50   1.6972  2.4327   128.3    18.5    24.8

A. U. Tomatic                (C) Copyright 2023 MPC           M.P.E.C. 2023-X305





More information about the Iaude mailing list